CDT,Max TemperatureF,Mean TemperatureF,Min TemperatureF,Max Dew PointF,MeanDew PointF,Min DewpointF,Max Humidity, Mean Humidity, Min Humidity, Max Sea Level PressureIn, Mean Sea Level PressureIn, Min Sea Level PressureIn, Max VisibilityMiles, Mean VisibilityMiles, Min VisibilityMiles, Max Wind SpeedMPH, Mean Wind SpeedMPH, Max Gust SpeedMPH,PrecipitationIn, CloudCover, Events, WindDirDegrees
2013-8-1,89,76,63,64,61,53,93,62,31,30.06,30.00,29.88,10,10,7,14,5,20,0.00,4,,245
2013-8-2,85,77,68,65,62,53,81,65,48,30.00,29.91,29.88,10,10,10,21,7,27,T,6,,349
2013-8-3,82,73,64,59,55,51,73,55,36,30.17,30.09,30.01,10,10,10,13,7,16,0.00,4,,37
2013-8-4,83,71,59,59,56,53,84,62,39,30.18,30.12,30.04,10,10,10,16,7,22,0.00,3,,149
2013-8-5,85,75,65,71,66,59,87,73,58,30.01,29.91,29.82,10,10,10,18,6,23,T,6,,218
2013-8-6,92,81,70,72,69,67,90,70,49,29.88,29.82,29.75,10,9,1,20,5,23,0.25,5,Rain-Thunderstorm,176
2013-8-7,84,77,69,68,64,60,90,69,47,29.99,29.88,29.78,10,10,10,20,8,24,0.00,5,Rain-Thunderstorm,360
2013-8-8,83,74,64,63,60,55,73,60,46,30.01,29.99,29.95,10,10,10,12,5,15,0.00,6,,106
2013-8-9,84,76,67,66,61,54,84,62,39,30.12,30.03,29.99,10,10,10,17,6,22,T,6,,335
2013-8-10,85,73,61,61,57,52,84,62,40,30.19,30.14,30.08,10,10,10,9,5,11,0.00,1,,151
2013-8-11,88,77,65,63,61,58,78,59,40,30.12,30.05,29.97,10,10,10,17,9,22,0.22,4,,209
2013-8-12,85,76,66,68,63,53,90,65,40,30.08,30.00,29.96,10,8,1,18,9,23,0.51,6,Rain-Thunderstorm,359
2013-8-13,81,71,60,58,55,51,84,62,39,30.16,30.09,30.04,10,10,10,15,6,18,0.00,5,,24
2013-8-14,77,67,57,54,50,47,80,59,38,30.22,30.17,30.12,10,10,10,12,6,18,0.00,6,,140
2013-8-15,74,68,62,56,53,51,73,61,49,30.16,30.12,30.10,10,10,10,16,7,22,T,6,Rain,179
2013-8-16,80,69,57,56,53,50,86,63,39,30.19,30.16,30.13,10,10,10,10,6,,0.00,1,,111
2013-8-17,82,71,59,56,54,52,80,58,36,30.22,30.17,30.11,10,10,10,14,5,17,0.00,1,,140
2013-8-18,84,73,61,59,56,54,78,59,40,30.17,30.12,30.06,10,10,10,15,7,19,0.00,1,,164
2013-8-19,87,75,62,64,61,58,84,63,42,30.08,30.03,29.97,10,10,6,18,9,25,0.00,3,,180
2013-8-20,92,81,69,67,64,61,78,60,41,30.00,29.96,29.91,10,10,9,21,12,26,0.00,3,,192
2013-8-21,93,83,72,69,66,65,84,62,39,29.99,29.96,29.94,10,10,10,20,10,26,0.00,3,,208
2013-8-22,82,77,72,69,67,66,84,71,58,30.09,30.04,29.98,10,10,10,13,6,17,T,6,,167
2013-8-23,90,80,70,72,69,67,90,71,52,30.12,30.07,30.01,10,8,3,15,9,20,0.00,5,,127
2013-8-24,95,84,72,71,68,67,90,66,41,30.12,30.07,30.03,10,10,9,23,12,28,0.00,5,,170
2013-8-25,96,85,73,69,67,64,73,54,35,30.15,30.09,30.04,10,10,10,21,12,27,0.00,1,,198
2013-8-26,99,86,73,71,68,65,84,59,33,30.09,30.03,29.95,10,10,6,18,10,23,0.00,0,,210
2013-8-27,99,88,77,69,68,67,74,57,39,29.94,29.90,29.85,10,10,10,23,14,30,0.00,1,,229
2013-8-28,99,87,74,67,65,62,73,52,31,29.98,29.94,29.91,10,10,10,15,7,18,0.00,1,,249
2013-8-29,96,85,73,72,69,66,79,62,44,30.02,29.96,29.90,10,10,10,17,7,20,0.00,2,,170
2013-8-30,104,89,74,75,70,62,87,57,27,29.89,29.83,29.76,10,10,10,18,9,22,0.00,0,,233
2013-8-31,94,83,71,71,66,60,84,59,33,29.83,29.79,29.75,10,10,10,9,5,,0.00,2,,332